Sigfox identifier Datetime Temperature Humidity SNR
002EEEF0 2019-04-23 14:46:36 21.6 30 15.7
002EEEF0 2019-04-23 14:13:19 21.5 30 15.8
002EEEF0 2019-04-23 13:40:02 21.5 29 15.3
002EEEF0 2019-04-23 13:06:49 21.6 29 15.9
002EEEF0 2019-04-23 12:33:30 21.5 29 15.9
002EEEF0 2019-04-23 12:00:10 21.5 29 15.3
002EEEF0 2019-04-23 11:26:53 21.3 29 15.5
002EEEF0 2019-04-23 10:53:39 21.3 29 15.5
002EEEF0 2019-04-23 10:20:17 21.3 29 15.4
002EEEF0 2019-04-23 09:47:01 21.3 29 15.5
002EEEF0 2019-04-23 09:13:43 21.3 29 15.4
002EEEF0 2019-04-23 08:40:25 21.3 29 15.4
002EEEF0 2019-04-23 08:07:08 21.2 29 18.7
002EEEF0 2019-04-23 07:33:50 21.3 29 20.7
002EEEF0 2019-04-23 07:00:33 21.3 29 20.4
002EEEF0 2019-04-23 06:27:16 21.3 28 20.4
002EEEF0 2019-04-23 05:54:02 21.3 28 20.7
002EEEF0 2019-04-23 05:20:44 21.3 29 21
002EEEF0 2019-04-23 04:47:29 21.3 29 21
002EEEF0 2019-04-23 04:14:12 21.3 29 21
002EEEF0 2019-04-23 03:40:57 21.3 28 21.3
002EEEF0 2019-04-23 03:07:41 21.3 29 21.2
002EEEF0 2019-04-23 02:34:27 21.3 28 21.2
002EEEF0 2019-04-23 02:01:10 21.3 28 21.3
002EEEF0 2019-04-23 01:27:53 21.3 28 21.3
002EEEF0 2019-04-23 00:54:35 21.3 28 21.3
002EEEF0 2019-04-23 00:21:18 21.3 28 21.3
002EEEF0 2019-04-22 23:48:01 21.3 28 21.2
002EEEF0 2019-04-22 23:14:45 21.3 28 21.1
002EEEF0 2019-04-22 22:41:30 21.2 28 21.1
002EEEF0 2019-04-22 22:08:14 21.2 28 21.2
002EEEF0 2019-04-22 21:34:57 21.2 28 21.2
002EEEF0 2019-04-22 21:01:41 21.1 28 21.2
002EEEF0 2019-04-22 20:28:25 21.2 28 21.2
002EEEF0 2019-04-22 19:55:11 21.1 28 21.2
002EEEF0 2019-04-22 19:21:55 21.1 28 21.2
002EEEF0 2019-04-22 18:48:40 21.1 28 19.7
002EEEF0 2019-04-22 18:15:24 21.2 28 19.6
002EEEF0 2019-04-22 17:42:09 21.2 28 17.3
002EEEF0 2019-04-22 17:08:53 21.3 28 17.2
002EEEF0 2019-04-22 16:35:36 21.3 28 17.3
002EEEF0 2019-04-22 16:02:21 21.2 28 16.6
002EEEF0 2019-04-22 15:29:04 21.3 28 16
002EEEF0 2019-04-22 14:55:52 21.2 28 16
002EEEF0 2019-04-22 14:22:32 21.3 28 16
002EEEF0 2019-04-22 13:49:15 21.3 28 15
002EEEF0 2019-04-22 13:15:59 21.3 28 15
002EEEF0 2019-04-22 12:42:42 21.3 28 15.4
002EEEF0 2019-04-22 12:09:25 21.3 28 14.9
002EEEF0 2019-04-22 11:36:08 21.3 28 14.9
002EEEF0 2019-04-22 11:02:53 21.3 28 14.7
002EEEF0 2019-04-22 10:29:37 21.3 28 14.9
002EEEF0 2019-04-22 09:56:21 21.3 28 15
002EEEF0 2019-04-22 09:23:05 21.3 27 15.1
002EEEF0 2019-04-22 08:49:49 21.3 27 15.3
002EEEF0 2019-04-22 08:16:32 21.3 27 14.7
002EEEF0 2019-04-22 07:43:16 21.3 27 14.5
002EEEF0 2019-04-22 07:10:02 21.3 27 14.6
002EEEF0 2019-04-22 06:36:46 21.4 27 14.7
002EEEF0 2019-04-22 06:03:31 21.3 27 14.5
002EEEF0 2019-04-22 05:30:15 21.3 27 15.4
002EEEF0 2019-04-22 04:57:02 21.3 27 15.5
002EEEF0 2019-04-22 04:23:43 21.3 27 15.6
002EEEF0 2019-04-22 03:50:26 21.4 27 15.6
002EEEF0 2019-04-22 03:17:11 21.4 27 15.6
002EEEF0 2019-04-22 02:43:55 21.4 27 15.7
002EEEF0 2019-04-22 02:10:40 21.4 27 15.5
002EEEF0 2019-04-22 01:37:24 21.4 27 15.6
002EEEF0 2019-04-22 01:04:09 21.4 28 16.3
002EEEF0 2019-04-22 00:30:53 21.5 28 16.7
002EEEF0 2019-04-21 23:57:36 21.5 28 16.8
002EEEF0 2019-04-21 23:24:19 21.5 28 19.3
002EEEF0 2019-04-21 22:51:01 21.5 28 19.4
002EEEF0 2019-04-21 22:17:45 21.5 28 19.9
002EEEF0 2019-04-21 21:44:27 21.5 27 19.9
002EEEF0 2019-04-21 21:11:09 21.4 28 19.8
002EEEF0 2019-04-21 20:37:51 21.5 27 19.8
002EEEF0 2019-04-21 20:04:35 21.3 28 19.8
002EEEF0 2019-04-21 19:31:19 21.3 27 19.8
002EEEF0 2019-04-21 18:58:02 21.3 27 19.8
002EEEF0 2019-04-21 18:24:46 21.3 27 20
002EEEF0 2019-04-21 17:51:30 21.3 27 19.9
002EEEF0 2019-04-21 17:18:14 21.3 27 19.9
002EEEF0 2019-04-21 16:44:58 21.3 27 19.7
002EEEF0 2019-04-21 16:11:43 21.2 27 19.5
002EEEF0 2019-04-21 15:38:27 21.3 27 19.5
002EEEF0 2019-04-21 15:05:11 21.3 27 19.4
002EEEF0 2019-04-21 14:31:56 21.2 27 19.4
002EEEF0 2019-04-21 13:58:41 21.2 27 19.5
002EEEF0 2019-04-21 13:25:26 21.2 27 19.7
002EEEF0 2019-04-21 12:52:11 21.2 27 19.7
002EEEF0 2019-04-21 12:18:53 21.2 27 19.6
002EEEF0 2019-04-21 11:45:39 21.1 27 19.4
002EEEF0 2019-04-21 11:12:22 21.1 27 19.3
002EEEF0 2019-04-21 10:39:06 21.2 27 19.3
002EEEF0 2019-04-21 10:05:50 21.1 27 16.7
002EEEF0 2019-04-21 09:32:34 21.2 27 16.4
002EEEF0 2019-04-21 08:59:18 21.3 27 15.1
002EEEF0 2019-04-21 08:26:02 21.2 27 16.1
002EEEF0 2019-04-21 07:52:47 21.1 27 16.1
002EEEF0 2019-04-21 07:19:31 21.3 27 16.3
002EEEF0 2019-04-21 06:46:14 21.3 27 16.3
002EEEF0 2019-04-21 06:12:58 21.3 27 16.4
002EEEF0 2019-04-21 05:39:43 21.3 27 16.9
002EEEF0 2019-04-21 05:06:26 21.3 27 16.9
002EEEF0 2019-04-21 04:33:09 21.3 27 16.4
002EEEF0 2019-04-21 03:59:54 21.3 27 16.4
002EEEF0 2019-04-21 03:26:38 21.3 27 16.9
002EEEF0 2019-04-21 02:53:22 21.3 27 16.9
002EEEF0 2019-04-21 02:20:06 21.3 27 17.2
002EEEF0 2019-04-21 01:46:51 21.3 27 17.4
002EEEF0 2019-04-21 01:13:35 21.3 27 17.4
002EEEF0 2019-04-21 00:40:20 21.3 27 17.6
002EEEF0 2019-04-21 00:07:05 21.3 27 17.4
002EEEF0 2019-04-20 23:33:49 21.3 27 17
002EEEF0 2019-04-20 23:00:31 21.3 26 17.1
002EEEF0 2019-04-20 22:27:15 21.3 26 17.1
002EEEF0 2019-04-20 21:53:57 21.3 26 17.2
002EEEF0 2019-04-20 21:20:40 21.3 26 17.3
002EEEF0 2019-04-20 20:47:24 21.3 26 17.1
002EEEF0 2019-04-20 20:14:07 21.3 26 17
002EEEF0 2019-04-20 19:40:49 21.3 26 17.1
002EEEF0 2019-04-20 19:07:33 21.4 26 17.1
002EEEF0 2019-04-20 18:34:17 21.3 26 16.5
002EEEF0 2019-04-20 18:01:01 21.3 26 16.9
002EEEF0 2019-04-20 17:27:44 21.3 26 16.7
002EEEF0 2019-04-20 16:54:28 21.3 26 16.7
002EEEF0 2019-04-20 16:21:12 21.3 26 16.8
002EEEF0 2019-04-20 15:47:55 21.3 26 16.3
002EEEF0 2019-04-20 15:14:39 21.3 26 16.4
002EEEF0 2019-04-20 14:41:25 21.2 26 19.2
002EEEF0 2019-04-20 14:08:09 21.1 26 19.3
002EEEF0 2019-04-20 13:34:51 21.1 26 19.1
002EEEF0 2019-04-20 13:01:33 21.1 26 19.1
002EEEF0 2019-04-20 12:28:15 21.1 26 19.2
002EEEF0 2019-04-20 11:54:58 21.1 26 19.2
002EEEF0 2019-04-20 11:21:41 21.1 26 19.3
002EEEF0 2019-04-20 10:48:23 21.1 26 19.2
002EEEF0 2019-04-20 10:15:06 21.1 26 19.6
002EEEF0 2019-04-20 09:41:48 21.1 26 19.9
002EEEF0 2019-04-20 09:08:30 21.1 26 20.1
002EEEF0 2019-04-20 08:35:11 21.1 26 20
002EEEF0 2019-04-20 08:01:54 21.1 26 19.9
002EEEF0 2019-04-20 07:28:36 21.1 26 19.9
002EEEF0 2019-04-20 06:55:17 21.1 26 19.9
002EEEF0 2019-04-20 06:21:59 21.1 26 19.9
002EEEF0 2019-04-20 05:48:42 21.1 26 20.1
002EEEF0 2019-04-20 05:15:24 21.1 26 20
002EEEF0 2019-04-20 04:42:05 21.1 26 20.1
002EEEF0 2019-04-20 04:08:47 21.1 26 20.4
002EEEF0 2019-04-20 03:35:27 21.1 26 20.4
002EEEF0 2019-04-20 03:02:08 21.1 26 20.5
002EEEF0 2019-04-20 02:28:49 21.1 26 20.5
002EEEF0 2019-04-20 01:55:32 21 26 20.6
002EEEF0 2019-04-20 01:22:14 21.1 26 18.9
002EEEF0 2019-04-20 00:48:57 21.1 26 19
002EEEF0 2019-04-20 00:15:39 20.9 26 19.2
002EEEF0 2019-04-19 23:42:22 21 26 19.3
002EEEF0 2019-04-19 23:09:05 21.1 26 19
002EEEF0 2019-04-19 22:35:48 21 26 19
002EEEF0 2019-04-19 22:02:31 21 26 19.1
002EEEF0 2019-04-19 21:29:13 21 26 19.1
002EEEF0 2019-04-19 20:55:55 21 26 18.9
002EEEF0 2019-04-19 20:22:40 20.9 26 19
002EEEF0 2019-04-19 19:49:21 21 26 18.8
002EEEF0 2019-04-19 19:16:03 20.9 26 18.7
002EEEF0 2019-04-19 18:42:46 21 26 19
002EEEF0 2019-04-19 18:09:29 21 26 18.9
002EEEF0 2019-04-19 17:36:14 21 26 19
002EEEF0 2019-04-19 17:02:55 21 27 19.1
002EEEF0 2019-04-19 16:29:40 21.1 27 19.4
002EEEF0 2019-04-19 15:56:24 21.1 27 19.2
002EEEF0 2019-04-19 15:23:07 21 27 19.1
002EEEF0 2019-04-19 14:49:47 21.1 27 19
002EEEF0 2019-04-19 14:16:31 21.1 27 18.8
002EEEF0 2019-04-19 13:43:14 21.1 27 18.8
002EEEF0 2019-04-19 13:09:59 21.1 27 18.8
002EEEF0 2019-04-19 12:36:44 21.1 27 18.7
002EEEF0 2019-04-19 12:03:28 21.1 27 18.4
002EEEF0 2019-04-19 11:30:11 21.1 28 18.3
002EEEF0 2019-04-19 10:56:53 21.2 28 18.1
002EEEF0 2019-04-19 10:23:37 21.1 28 17.9
002EEEF0 2019-04-19 09:50:21 21.2 28 17.9
002EEEF0 2019-04-19 09:17:04 21.3 28 17.9
002EEEF0 2019-04-19 08:43:49 21.3 28 17.8
002EEEF0 2019-04-19 08:10:31 21.3 28 17.6
002EEEF0 2019-04-19 07:37:16 21.3 28 17.5
002EEEF0 2019-04-19 07:03:59 21.3 28 17.2
002EEEF0 2019-04-19 06:30:43 21.3 28 17
002EEEF0 2019-04-19 05:57:26 21.3 28 17.2
002EEEF0 2019-04-19 05:24:09 21.3 28 17.1
002EEEF0 2019-04-19 04:50:52 21.3 28 16.7
002EEEF0 2019-04-19 04:17:35 21.3 28 16.8
002EEEF0 2019-04-19 03:44:20 21.3 28 16.7
002EEEF0 2019-04-19 03:10:58 21.3 29 16.3
002EEEF0 2019-04-19 02:37:41 21.4 29 16.3
002EEEF0 2019-04-19 02:04:28 21.4 29 19.2
002EEEF0 2019-04-19 01:31:06 21.3 29 21.9
002EEEF0 2019-04-19 00:57:48 21.3 29 22.8
002EEEF0 2019-04-19 00:24:31 21.3 29 23.1
002EEEF0 2019-04-18 23:51:18 21.3 29 24.4
002EEEF0 2019-04-18 23:17:58 21.3 29 24.8
002EEEF0 2019-04-18 22:44:42 21.3 29 24.9
002EEEF0 2019-04-18 22:11:25 21.3 29 25.1
002EEEF0 2019-04-18 21:38:08 21.3 29 25.3
002EEEF0 2019-04-18 21:04:50 21.3 29 25.6
002EEEF0 2019-04-18 20:31:34 21.3 29 25.9
002EEEF0 2019-04-18 19:58:17 21.5 29 26
002EEEF0 2019-04-18 19:24:58 21.5 29 26.4
002EEEF0 2019-04-18 18:51:41 21.5 29 26.5
002EEEF0 2019-04-18 18:18:25 21.5 29 26.7
002EEEF0 2019-04-18 17:45:08 21.5 29 26.8
002EEEF0 2019-04-18 17:11:52 21.5 29 27
002EEEF0 2019-04-18 16:38:36 21.6 29 27.2
002EEEF0 2019-04-18 16:05:20 21.6 29 27.3
002EEEF0 2019-04-18 15:32:03 21.7 29 27.9
002EEEF0 2019-04-18 14:58:47 21.7 29 28
002EEEF0 2019-04-18 14:25:30 21.8 29 28.2
002EEEF0 2019-04-18 13:52:14 21.9 30 28.1
002EEEF0 2019-04-18 13:18:57 22 29 27.9
002EEEF0 2019-04-18 12:45:41 22.2 29 27.8
002EEEF0 2019-04-18 12:12:23 22.6 28 27.7
002EEEF0 2019-04-18 11:39:06 22.6 22 27.8
002EEEF0 2019-04-18 11:05:48 22.4 23 27.8
002EEEF0 2019-04-18 10:32:31 22.4 24 27.6
002EEEF0 2019-04-18 09:59:15 22.3 23 27.7
002EEEF0 2019-04-18 09:25:58 22.4 23 27.7
002EEEF0 2019-04-18 08:52:41 22.4 23 27.8
002EEEF0 2019-04-18 08:19:25 22.2 23 27.8
002EEEF0 2019-04-18 07:46:08 22.4 22 27.8
002EEEF0 2019-04-18 07:12:51 22.4 23 27.9
002EEEF0 2019-04-18 06:39:33 22.3 23 27.9
002EEEF0 2019-04-18 06:06:16 22.2 23 27.7
002EEEF0 2019-04-18 05:33:00 22.2 23 27.7
002EEEF0 2019-04-18 04:59:43 22.3 23 27.7
002EEEF0 2019-04-18 04:26:25 22.4 23 27.7
002EEEF0 2019-04-18 03:53:07 22.4 24 27.7
002EEEF0 2019-04-18 03:19:49 22.4 24 27.8
002EEEF0 2019-04-18 02:46:32 22.4 24 27.7
002EEEF0 2019-04-18 02:13:14 22.4 24 27.5
002EEEF0 2019-04-18 01:39:56 22.5 24 27.4
002EEEF0 2019-04-18 01:06:37 22.5 24 27.3
002EEEF0 2019-04-18 00:33:20 22.5 24 27.2
002EEEF0 2019-04-18 00:00:02 22.5 24 27.3
002EEEF0 2019-04-17 23:26:44 22.6 24 27.3
002EEEF0 2019-04-17 22:53:27 22.6 24 27.3
002EEEF0 2019-04-17 22:20:11 22.6 24 27.3
002EEEF0 2019-04-17 21:46:53 22.7 24 27.1
002EEEF0 2019-04-17 21:13:36 22.8 24 27
002EEEF0 2019-04-17 20:40:18 22.8 24 27.2
002EEEF0 2019-04-17 20:07:00 22.9 24 27.1
002EEEF0 2019-04-17 19:33:42 23 24 27.1
002EEEF0 2019-04-17 19:00:25 23 24 27
002EEEF0 2019-04-17 18:27:06 22.9 23 27
002EEEF0 2019-04-17 17:53:48 23 23 27
002EEEF0 2019-04-17 17:20:31 23 23 26.9
002EEEF0 2019-04-17 16:47:15 23 23 27
002EEEF0 2019-04-17 16:13:57 23.2 23 27.1
002EEEF0 2019-04-17 15:40:39 23 24 27.2
002EEEF0 2019-04-17 15:07:20 23 24 27.2
002EEEF0 2019-04-17 14:34:03 23 24 27.2
002EEEF0 2019-04-17 14:00:44 23 24 27.1
002EEEF0 2019-04-17 13:27:27 22.9 24 27.2
002EEEF0 2019-04-17 12:54:10 22.8 24 27.3
002EEEF0 2019-04-17 12:20:53 22.6 24 27.2
002EEEF0 2019-04-17 11:47:36 22.6 23 27.2
002EEEF0 2019-04-17 11:14:20 22.4 23 27.2
002EEEF0 2019-04-17 10:41:03 22.4 23 27.1
002EEEF0 2019-04-17 10:07:46 22.4 23 27
002EEEF0 2019-04-17 09:34:29 22.4 23 27
002EEEF0 2019-04-17 09:01:12 22.4 23 26.8
002EEEF0 2019-04-17 08:27:55 22.3 22 26.8
002EEEF0 2019-04-17 07:54:40 22.3 22 26.9
002EEEF0 2019-04-17 07:21:23 22.2 21 26.9
002EEEF0 2019-04-17 06:48:06 22.2 21 26.7
002EEEF0 2019-04-17 06:14:49 22.2 21 26.8
002EEEF0 2019-04-17 05:41:33 22.2 21 27
002EEEF0 2019-04-17 05:08:16 22.2 21 26.9
002EEEF0 2019-04-17 04:34:59 22.2 21 26.8
002EEEF0 2019-04-17 04:01:42 22.3 21 27.1
002EEEF0 2019-04-17 03:28:25 22.2 21 26.9
002EEEF0 2019-04-17 02:55:10 22.3 21 27.1
002EEEF0 2019-04-17 02:21:55 22.3 21 27
002EEEF0 2019-04-17 01:48:40 22.4 21 27
002EEEF0 2019-04-17 01:15:24 22.4 22 27
002EEEF0 2019-04-17 00:42:08 22.3 22 27.2
002EEEF0 2019-04-17 00:08:52 22.4 22 27.2
002EEEF0 2019-04-16 23:35:36 22.4 22 27.1
002EEEF0 2019-04-16 23:02:21 22.4 22 27.1
002EEEF0 2019-04-16 22:29:03 22.4 21 27
002EEEF0 2019-04-16 21:55:47 22.5 21 27
002EEEF0 2019-04-16 21:22:28 22.6 21 27.1
002EEEF0 2019-04-16 20:49:10 22.6 21 27.1
002EEEF0 2019-04-16 20:15:52 22.6 21 27.2
002EEEF0 2019-04-16 19:42:35 22.6 21 27.3
002EEEF0 2019-04-16 19:09:17 22.6 21 27.4
002EEEF0 2019-04-16 18:36:01 22.6 20 27.4
002EEEF0 2019-04-16 18:02:44 22.6 20 27.4
002EEEF0 2019-04-16 17:29:28 22.8 20 27.5
002EEEF0 2019-04-16 16:56:11 22.8 20 27.5
002EEEF0 2019-04-16 16:22:55 22.8 20 27.4
002EEEF0 2019-04-16 15:49:39 22.9 20 27.3
002EEEF0 2019-04-16 15:16:22 22.9 20 27.5
002EEEF0 2019-04-16 14:43:05 22.8 21 27.5
002EEEF0 2019-04-16 14:09:50 22.8 20 27.3
002EEEF0 2019-04-16 13:36:33 22.6 20 27.3
002EEEF0 2019-04-16 13:03:16 22.6 20 27
002EEEF0 2019-04-16 12:29:59 22.6 20 27
002EEEF0 2019-04-16 11:56:41 22.4 19 27.3
002EEEF0 2019-04-16 11:23:22 22.4 19 27.3
002EEEF0 2019-04-16 10:50:06 22.4 20 27.3
002EEEF0 2019-04-16 10:16:49 22.3 20 27.3
002EEEF0 2019-04-16 09:43:33 22.2 20 27.3
002EEEF0 2019-04-16 09:10:16 22.2 19 27.3
002EEEF0 2019-04-16 08:36:59 22.3 19 27.4
002EEEF0 2019-04-16 08:03:42 22.2 19 27.4
002EEEF0 2019-04-16 07:30:25 22.2 19 27.4
002EEEF0 2019-04-16 06:57:08 22.2 19 27.4
002EEEF0 2019-04-16 06:23:52 22.2 19 27.4
002EEEF0 2019-04-16 05:50:34 22.2 19 27.3
002EEEF0 2019-04-16 05:17:17 22.2 19 27.3
002EEEF0 2019-04-16 04:44:00 22.2 19 27.2
002EEEF0 2019-04-16 04:10:43 22.2 19 27.3
002EEEF0 2019-04-16 03:37:25 22.2 19 27.5
002EEEF0 2019-04-16 03:04:08 22.2 19 27.4
002EEEF0 2019-04-16 02:30:51 22.2 19 27.3
002EEEF0 2019-04-16 01:57:33 22.2 19 27.3
002EEEF0 2019-04-16 01:24:17 22.2 19 27.2
002EEEF0 2019-04-16 00:51:00 22.2 19 27.2
002EEEF0 2019-04-16 00:17:43 22.2 18 27.2
002EEEF0 2019-04-15 23:44:25 22.3 18 27.2
002EEEF0 2019-04-15 23:11:10 22.4 18 27.3
002EEEF0 2019-04-15 22:37:54 22.4 18 27.2
002EEEF0 2019-04-15 22:04:38 22.4 18 27
002EEEF0 2019-04-15 21:31:21 22.4 18 27
002EEEF0 2019-04-15 20:58:03 22.5 18 26.8
002EEEF0 2019-04-15 20:24:46 22.6 18 26.9
002EEEF0 2019-04-15 19:51:30 22.6 18 26.9
002EEEF0 2019-04-15 19:18:13 22.6 17 27.1
002EEEF0 2019-04-15 18:44:57 22.6 17 27.3
002EEEF0 2019-04-15 18:11:39 22.6 16 27.5
002EEEF0 2019-04-15 17:38:21 22.8 16 27.5
002EEEF0 2019-04-15 17:05:03 22.8 17 27.4
002EEEF0 2019-04-15 16:31:46 22.8 16 27.5
002EEEF0 2019-04-15 15:58:28 22.9 17 27.4
002EEEF0 2019-04-15 15:25:10 22.8 17 27.5
002EEEF0 2019-04-15 14:51:53 22.8 17 27.6
002EEEF0 2019-04-15 14:18:37 22.8 17 27.5
002EEEF0 2019-04-15 13:45:20 22.9 17 27.4
002EEEF0 2019-04-15 13:12:04 22.7 18 27.3
002EEEF0 2019-04-15 12:38:47 22.7 18 27.4
002EEEF0 2019-04-15 12:05:30 22.4 17 27.4
002EEEF0 2019-04-15 11:32:13 22.4 17 27.5
002EEEF0 2019-04-15 10:58:56 22.4 17 27.5
002EEEF0 2019-04-15 10:25:39 22.4 18 27.6
002EEEF0 2019-04-15 09:52:23 22.3 18 27.6
002EEEF0 2019-04-15 09:19:06 22.2 18 27.7
002EEEF0 2019-04-15 08:45:50 22.2 18 27.8
002EEEF0 2019-04-15 08:12:33 22.1 18 27.8
002EEEF0 2019-04-15 07:39:15 22 18 27.7
002EEEF0 2019-04-15 07:05:58 22 18 27.8
002EEEF0 2019-04-15 06:32:41 22 18 27.7
002EEEF0 2019-04-15 05:59:25 22 18 27.5
002EEEF0 2019-04-15 05:26:07 22 18 27.3
002EEEF0 2019-04-15 04:52:49 22 19 27.4
002EEEF0 2019-04-15 04:19:32 21.9 19 27.2
002EEEF0 2019-04-15 03:46:13 22 19 27.3
002EEEF0 2019-04-15 03:12:55 22 19 27.4
002EEEF0 2019-04-15 02:39:37 22 19 27.3
002EEEF0 2019-04-15 02:06:19 22 19 27.2
002EEEF0 2019-04-15 01:33:01 21.9 19 27.3
002EEEF0 2019-04-15 00:59:44 21.9 19 27.2
002EEEF0 2019-04-15 00:26:26 21.9 19 27.1
002EEEF0 2019-04-14 23:53:09 21.9 19 27.1
002EEEF0 2019-04-14 23:19:51 21.9 19 27.1
002EEEF0 2019-04-14 22:46:34 22 19 27.2
002EEEF0 2019-04-14 22:13:18 22 19 27.1
002EEEF0 2019-04-14 21:40:02 22 20 27.1
002EEEF0 2019-04-14 21:06:46 22.2 20 27.3
002EEEF0 2019-04-14 20:33:28 22.2 20 27.4
002EEEF0 2019-04-14 20:00:11 22.2 20 27.5
002EEEF0 2019-04-14 19:26:53 22.2 19 27.5
002EEEF0 2019-04-14 18:53:35 22.2 19 27.4
002EEEF0 2019-04-14 18:20:18 22.2 19 27.3
002EEEF0 2019-04-14 17:47:00 22.2 19 27.3
002EEEF0 2019-04-14 17:13:42 22.1 19 27.3
002EEEF0 2019-04-14 16:40:24 22 19 27.5
002EEEF0 2019-04-14 16:07:07 22 19 27.6
002EEEF0 2019-04-14 15:33:50 22 19 27.6
002EEEF0 2019-04-14 15:00:33 22 19 27.4
002EEEF0 2019-04-14 14:27:16 22.1 19 27.4
002EEEF0 2019-04-14 13:53:59 22.1 19 27.3
002EEEF0 2019-04-14 13:20:42 22.1 20 27.3
002EEEF0 2019-04-14 12:47:26 22 20 27.3
002EEEF0 2019-04-14 12:14:10 22.1 20 27.4
002EEEF0 2019-04-14 11:40:53 22.1 20 27.3
002EEEF0 2019-04-14 11:07:36 22.1 20 27.3
002EEEF0 2019-04-14 10:34:20 22 20 27.4
002EEEF0 2019-04-14 10:01:04 22 20 27.5
002EEEF0 2019-04-14 09:27:46 22.1 20 27.6
002EEEF0 2019-04-14 08:54:28 22 20 27.5
002EEEF0 2019-04-14 08:21:11 22 19 27.6
002EEEF0 2019-04-14 07:47:54 22 19 27.7
002EEEF0 2019-04-14 07:14:36 22 19 27.5
002EEEF0 2019-04-14 06:41:19 22 19 27.4
002EEEF0 2019-04-14 06:08:01 22 19 27.2
002EEEF0 2019-04-14 05:34:42 22 19 27.2
002EEEF0 2019-04-14 05:01:26 22 19 27.4
002EEEF0 2019-04-14 04:28:08 22 19 27.6
002EEEF0 2019-04-14 03:54:52 22 19 27.5
002EEEF0 2019-04-14 03:21:35 22.1 19 27.6
002EEEF0 2019-04-14 02:48:19 22 19 27.4
002EEEF0 2019-04-14 02:15:03 22.1 19 27.4
002EEEF0 2019-04-14 01:41:46 22 19 27.3
002EEEF0 2019-04-14 01:08:29 22.1 19 27.4
002EEEF0 2019-04-14 00:35:12 22.2 19 27.4
002EEEF0 2019-04-14 00:01:55 22.2 19 27.4
002EEEF0 2019-04-13 23:28:37 22.2 19 27.3
002EEEF0 2019-04-13 22:55:21 22.2 19 27.3
002EEEF0 2019-04-13 22:22:04 22.2 19 27.3
002EEEF0 2019-04-13 21:48:45 22.2 19 27.2
002EEEF0 2019-04-13 21:15:28 22.2 19 27.2
002EEEF0 2019-04-13 20:42:10 22.2 19 27.2
002EEEF0 2019-04-13 20:08:54 22.2 19 27.2
002EEEF0 2019-04-13 19:35:37 22.2 19 27.3
002EEEF0 2019-04-13 19:02:20 22.2 19 27.3
002EEEF0 2019-04-13 18:29:04 22.3 19 27.3
002EEEF0 2019-04-13 17:55:47 22.4 19 27.1
002EEEF0 2019-04-13 17:22:30 22.4 19 27.1
002EEEF0 2019-04-13 16:49:13 22.4 19 27.3
002EEEF0 2019-04-13 16:15:55 22.4 19 27.3
002EEEF0 2019-04-13 15:42:39 22.4 19 27.4
002EEEF0 2019-04-13 15:09:21 22.4 19 27.3
002EEEF0 2019-04-13 14:36:03 22.4 19 27
002EEEF0 2019-04-13 14:02:45 22.4 19 27.2
002EEEF0 2019-04-13 13:29:29 22.5 19 27.3
002EEEF0 2019-04-13 12:56:11 22.6 19 27.4
002EEEF0 2019-04-13 12:22:54 22.5 19 27.3
002EEEF0 2019-04-13 11:49:35 22.5 19 27.2
002EEEF0 2019-04-13 11:16:18 22.5 19 27.3
002EEEF0 2019-04-13 10:43:01 22.4 19 27.5
002EEEF0 2019-04-13 10:09:42 22.4 19 27.4
002EEEF0 2019-04-13 09:36:25 22.4 19 27.4
002EEEF0 2019-04-13 09:03:08 22.4 19 27.5
002EEEF0 2019-04-13 08:29:51 22.4 18 27.4
002EEEF0 2019-04-13 07:56:35 22.4 19 27.5
002EEEF0 2019-04-13 07:23:17 22.4 18 27.4
002EEEF0 2019-04-13 06:50:00 22.4 18 27.4
002EEEF0 2019-04-13 06:16:43 22.4 18 27.3
002EEEF0 2019-04-13 05:43:25 22.4 18 27.1
002EEEF0 2019-04-13 05:10:08 22.4 18 27
002EEEF0 2019-04-13 04:36:49 22.4 18 27
002EEEF0 2019-04-13 04:03:32 22.4 18 27.1
002EEEF0 2019-04-13 03:30:14 22.5 18 27.3
002EEEF0 2019-04-13 02:56:57 22.6 18 27.2
002EEEF0 2019-04-13 02:23:39 22.6 19 27.2
002EEEF0 2019-04-13 01:50:22 22.6 19 27.1
002EEEF0 2019-04-13 01:17:05 22.6 19 27.1
002EEEF0 2019-04-13 00:43:46 22.6 19 27.2
002EEEF0 2019-04-13 00:10:28 22.6 19 27.1
002EEEF0 2019-04-12 23:37:10 22.7 19 26.9
002EEEF0 2019-04-12 23:03:51 22.7 19 26.8
002EEEF0 2019-04-12 22:30:34 22.8 19 26.9
002EEEF0 2019-04-12 21:57:16 22.8 20 27
002EEEF0 2019-04-12 21:23:58 22.9 20 26.9
002EEEF0 2019-04-12 20:50:39 22.9 20 26.6
002EEEF0 2019-04-12 20:17:19 22.8 19 26.6
002EEEF0 2019-04-12 19:44:01 22.8 19 26.8
002EEEF0 2019-04-12 19:10:43 22.9 19 26.9
002EEEF0 2019-04-12 18:37:25 22.8 18 26.8
002EEEF0 2019-04-12 18:04:07 23 17 27
002EEEF0 2019-04-12 17:30:49 23.2 18 27.3
002EEEF0 2019-04-12 16:57:30 23.2 18 27.2
002EEEF0 2019-04-12 16:24:11 23.2 18 27.5
002EEEF0 2019-04-12 15:50:53 23.2 18 27.9
002EEEF0 2019-04-12 15:17:36 23.1 19 28.5
002EEEF0 2019-04-12 14:44:18 23 18 29.1
002EEEF0 2019-04-12 14:11:01 22.8 19 28.6
002EEEF0 2019-04-12 13:37:42 22.2 20 26.6
002EEEF0 2019-04-12 13:04:24 21.1 24 0